Location: Sheep Hill Observatory
(40.9192°N, 74.4062°W)
Time: 01:24:29
(UTC-04:00)

Hubble Space Telescope - Visible Passes

Search period start: 22 September 2018 00:00
Search period end: 02 October 2018 00:00
Orbit: 537 x 541 km, 28.5° (Epoch: 20 September)

Date Brightness Start Highest point End Pass type
(mag) Time Alt. Az. Time Alt. Az. Time Alt. Az.
22 Sep 3.0 19:54:36 10° SW 19:56:47 14° S 19:58:57 10° SSE visible
23 Sep 3.1 19:44:15 10° SW 19:46:16 13° S 19:48:17 10° SSE visible
24 Sep 3.2 19:34:00 10° SW 19:35:45 12° S 19:37:30 10° SSE visible
25 Sep 3.3 19:23:55 10° SSW 19:25:13 11° SSW 19:26:32 10° S visible
